Volver al catálogo

STARLINK-3882

ActivoComunicacionesVLEO
NORAD 52475·PAYLOAD·🇺🇸 United States

Lanzado May 6, 2022 desde Cape Canaveral Space Force Station

Loading…

Próximos Pases (próximas 24 horas)

TLE

ActualizadoSource: CelesTrak SupGP

Época: Sep 15, 2026, 01:42 UTC

1 52475C 22049AA  26258.07131944  .00007548  00000+0  22299-3 0  2580
2 52475  53.1581 278.7508 0001283  78.8614  69.9134 15.34389574    15

Sigue STARLINK-3882 en tiempo real con AllMySat

Download on the App Store